Yunyao-1 40

operational
NORAD ID: 62732 Int'l Des: NNA 2025-013 Owner: YYAO Country: CN
LEOCIRCULARRETROGRADESSO

Über Yunyao-1 40

Beschreibung wird geladen...

Live-Position

3D-Globus wird geladen...

Nächste Überflüge

Höhenverlauf

Altitude vs Time

uPlot chart will show altitude changes over time

Zweizeiliger Elementsatz

1 62732U 25013D 25340.91436125 .00006678 00000-0 41973-3 0 9990
2 62732 97.6363 145.5742 0008217 338.3968 21.6913 15.09550755 48255
Epoch: 6. Dez. 2025 • Age: 18 hours

Aktueller Status

Höhe 545.8 km
Geschwindigkeit 7.59 km/s
Subsatellitenpunkt -0.15°S, 6.03°E
Startdatum 20. Jan. 2025
Alter 0.8 years
Typ other

Technische Details

Klassifizierung Payload
Masse 50.00 kg
Trockenmasse 50.00 kg
Gesamtmasse 50.00 kg
Länge 2.00 m
Durchmesser 1.50 m
Spannweite 5.00 m
Form Box + pan
Hersteller CGSTL
Bus-Typ YY-1
Phasenstatus In Orbit
Besitzer/Staat YYAO/CN

Große Konstellationen

Loading constellations...